Regional Weather Roundup
Issued by NWS

Home | Current Version | Previous Version | Text Only | Print | Product List | Glossary Off
Versions: 1 2 3 4 5 6 7 8 9 10 11 12 13 14 15 16 17 18 19 20 21 22 23 24 25 26 27 28 29 30 31 32 33 34 35 36 37 38 39 40 41 42 43 44 45 46 47 48 49 50

000
ASUS43 KDTX 282110
RWRMI
MICHIGAN HOURLY REGIONAL WEATHER ROUNDUP
NATIONAL WEATHER SERVICE DETROIT/PONTIAC MI
400 PM EST SUN DEC 28 2014

NOTE: "FAIR" INDICATES FEW OR NO CLOUDS BELOW 12,000 FEET WITH NO
SIGNIFICANT WEATHER AND/OR OBSTRUCTION TO VISIBILITY.

MIZ047>049-052>055-059>063-066>070-074>076-081>083-282200-
SOUTHEAST LOWER MICHIGAN

CITY           SKY/WX    TMP DP  RH WIND       PRES   REMARKS
ADRIAN         MOCLDY    34  24  67 NW8       30.12R WCI  27
ALMA           PTCLDY    34  22  61 W13       30.10R WCI  25
ANN ARBOR      MOCLDY    35  23  61 W8        30.10R WCI  29
BAD AXE        PTCLDY    32  22  65 W13       30.06R WCI  23
CARO           PTCLDY    33  22  65 W10       30.07R WCI  24
DETROIT CITY   MOCLDY    37  19  48 W7        30.10R WCI  32
DETROIT        MOCLDY    35  21  56 W9        30.11R WCI  28
FLINT          PTCLDY    34  22  61 W10       30.10R WCI  26
GROSSE ILE     CLOUDY    37  23  56 W7        30.09R WCI  32
HILLSDALE      PTSUNNY   35  24  64 W6        30.10R WCI  30
HOWELL         PTCLDY    33  22  66 W9        30.09R WCI  25

CITY           SKY/WX    TMP DP  RH WIND       PRES   REMARKS
JACKSON        PTCLDY    34  21  59 W8        30.10R WCI  27
LAMBERTVILLE   CLOUDY    36  27  69 W7        30.12R WCI  30
LANSING        PTCLDY    33  22  63 W10       30.11R WCI  25
LAPEER         FAIR      32  19  58 W8        30.08R WCI  25
MASON          MOCLDY    33  21  62 W12       30.10R WCI  24
MONROE         CLOUDY    36  27  69 W8        30.10R WCI  29
MT. CLEMENS    MOCLDY    37  17  44 W9        30.07R WCI  30
PONTIAC        MOCLDY    34  19  54 W14       30.07R WCI  25
PORT HOPE        N/A     34  19  54 W8        30.03R WCI  27
PORT HURON     MOCLDY    36  21  55 W5        30.08R WCI  32
TRI CITIES     PTCLDY    35  21  56 W13       30.08R WCI  26
TROY           MOCLDY    38  20  47 W6        30.10S WCI  34
SAGINAW HB     PTCLDY    34  25  69 SW12      30.08R WCI  25
$$
MIZ043>046-050>051-056>058-064>065-071>073-077>080-282200-
SOUTHWEST LOWER MICHIGAN

CITY           SKY/WX    TMP DP  RH WIND       PRES   REMARKS
BATTLE CREEK   PTSUNNY   34  20  56 W13       30.12R WCI  25
BENTON HARBOR  MOSUNNY   32  21  64 W12       30.16R WCI  23
BIG RAPIDS     PTCLDY    31  21  68 W8        30.08R WCI  23
COLDWATER      PTSUNNY   34  21  59 NW9       30.12R WCI  27
FREMONT        MOCLDY    32  20  62 NW7       30.11R WCI  25
HOLLAND        CLOUDY    33  22  63 W10       30.15R WCI  25
GRAND RAPIDS   MOCLDY    32  21  64 W13       30.12R WCI  22
IONIA          FAIR      35  21  57 W12       30.09R WCI  27
KALAMAZOO      PTSUNNY   34  21  59 W10       30.13R WCI  26
LUDINGTON      MOCLDY    30  21  69 N7        30.13R WCI  23
MARSHALL       PTSUNNY   33  22  64 W9        30.11R WCI  25
MOUNT PLEASANT CLEAR     33  21  60 CALM      30.08R
MUSKEGON       MOSUNNY   33  20  58 NW9       30.14R WCI  25
SOUTH HAVEN    MOSUNNY   34  19  54 W7        30.15R WCI  28
$$
MIZ016>042-282200-
NORTHERN LOWER MICHIGAN

CITY           SKY/WX    TMP DP  RH WIND       PRES   REMARKS
ALPENA         CLOUDY    30  18  60 W9G17     30.03R WCI  22
BEAVER ISLAND  PTCLDY    26  15  63 W9G16     30.07R WCI  17
BELLAIRE       CLOUDY    29  19  66 W6        30.09R WCI  23
CADILLAC       CLOUDY    27  19  72 W13       30.05R WCI  16
CHARLEVOIX     CLOUDY    28  19  68 W15       30.09R WCI  16
FRANKFORT      MOCLDY    28  20  73 NW9       30.11R WCI  19
GAYLORD        CLOUDY    25  19  78 W13G18    30.01R WCI  14
GRAYLING       CLOUDY    28  20  71 W10G17    30.04R WCI  19
HARBOR SPRINGS CLOUDY    28  18  67 W9        30.05R WCI  19
HOUGHTON LAKE  CLOUDY    28  17  63 W15       30.04R WCI  16
MANISTEE       CLOUDY    28  18  64 NW12      30.12R WCI  18
OSCODA         CLEAR     34  18  53 W10       30.03R WCI  26
PELLSTON       CLOUDY    27  18  69 NW15G22   30.05R WCI  15
ROGERS CITY    FLURRIES  28  23  80 W10G17    30.04R WCI  19
TRAVERSE CITY  CLOUDY    29  19  66 W10       30.08R WCI  20
$$
MIZ007>008-015-282200-
EASTERN UPPER MICHIGAN

CITY           SKY/WX    TMP DP  RH WIND       PRES   REMARKS
KINROSS        CLOUDY    25  21  86 W14G26    30.01R WCI  13
MACKINAC ISLAN MOCLDY    27  18  68 W14G22    30.03R WCI  15
NEWBERRY       CLOUDY    21  17  83 W9        30.04R WCI  11
S. S. MARIE    FLURRIES  24  17  74 NW13G24   30.01R WCI  12
MUNISING         N/A     25  11  55 W10G20    30.09R WCI  15
$$
MIZ004>006-011>014-085-282200-
CENTRAL UPPER MICHIGAN

CITY           SKY/WX    TMP DP  RH WIND       PRES   REMARKS
MANISTIQUE     MOCLDY    24  19  82 NW12      30.07R WCI  13
ESCANABA       MOCLDY    25  12  58 W12       30.10R WCI  14
MENOMINEE      CLOUDY    25  14  63 W7        30.12R WCI  17
SAWYER-GWINN   MOCLDY    19   9  63 NW12G18   30.06R WCI   7
$$
MIZ001>003-009>011-084-282200-
WESTERN UPPER MICHIGAN

CITY           SKY/WX    TMP DP  RH WIND       PRES   REMARKS
IRON MOUNTAIN    N/A     20  12  71 NW10      30.08R WCI   9
HOUGHTON       LGT SNOW  13   5  70 NW13      30.10R WCI  -2
COPPER HARBOR    N/A     18  13  80 N18       30.11R WCI   2
IRONWOOD       CLOUDY    12   9  85 NW9       30.12R WCI   0
$$

ABBREVIATIONS USED IN REMARKS
   TC - TEMPERATURE IN CELSIUS
  WCI - WIND CHILL INDEX
   HX - HEAT INDEX
  VSB - VISIBILITY



USA.gov is the U.S. government's official web portal to all federal, state and local government web resources and services.